sat.trackr.live / text

‹ back to catalog

AMAZONAS 4A

NORAD 39616 · 2014-011A

PAYLOAD ACTIVE UNKNOWN

§ Identity

Operator
Country
SPN
Launch date
2014-03-22
Launch site
FRGUI
Launch vehicle
Mass (kg)
RCS (m²)
163.50

Purposes: comms

External: N2YO · Heavens-Above · Gunter

§ Orbital elements

Epoch: 2026-09-04T03:49:51.828960Z

Period
1,436.11 min
Inclination
0.0618°
Eccentricity
0.0006290
Mean motion
1.00270770 rev/d
Perigee alt
35,760.4 km
Apogee alt
35,813.4 km
Semi-major
42,165.0 km
B*
0.0000e+0
RAAN
205.4818°
Arg perigee
335.0959°
Mean anomaly
146.2000°
Rev number
4,550

§ Raw data

AMAZONAS 4A1 39616U 14011A   26247.15962765 -.00000258  00000+0  00000+0 0  99982 39616   0.0618 205.4818 0006290 335.0959 146.2000  1.00270770 45502

JSON: /api/v1/satellites/39616 · /tle

For live sub-satellite position, see the globe view (requires WebGL).

§ Visibility from observer

Set your observer location to see the next 7 days of passes ≥ 10°. The values pass through the URL so the page stays shareable.

No JS? Fill the form by hand. The geolocation button needs JavaScript.